EW7114 Weather Reports


time (UTC)temp
F
wind
direction
speed
knots
gust
knots
rain 1hr
in
rain 24hr
in
rain mn
in
humidity
%
barometer
mb
20260905024602 76 161 8.7 16.5 0.00 0.00 0.00 28 999.0
20260905024057 76 170 9.6 17.4 0.00 0.00 0.00 28 999.0
20260905023559 75 147 7.0 14.8 0.00 0.00 0.00 29 998.9
20260905023100 75 143 8.7 14.8 0.00 0.00 0.00 29 998.8
20260905022556 75 141 7.8 12.2 0.00 0.00 0.00 30 998.7
20260905022058 76 135 8.7 13.9 0.00 0.00 0.00 30 998.7
20260905021558 76 148 8.7 13.9 0.00 0.00 0.00 29 998.7
20260905021055 77 152 10.4 15.6 0.00 0.00 0.00 28 998.6
20260905020555 77 152 11.3 15.6 0.00 0.00 0.00 28 998.6
20260905020055 77 152 8.7 13.0 0.00 0.00 0.00 28 998.6
20260905015555 78 166 9.6 14.8 0.00 0.00 0.00 27 998.5
20260905015055 78 159 11.3 18.2 0.00 0.00 0.00 28 998.4
20260905014554 78 157 11.3 20.0 0.00 0.00 0.00 28 998.4
20260905014054 79 156 11.3 20.0 0.00 0.00 0.00 28 998.4
20260905013554 79 172 10.4 17.4 0.00 0.00 0.00 28 998.4
20260905013054 80 161 12.2 18.2 0.00 0.00 0.00 27 998.3
20260905012554 80 164 11.3 21.7 0.00 0.00 0.00 28 998.3
20260905012054 81 162 15.6 21.7 0.00 0.00 0.00 27 998.3
20260905011556 81 169 13.0 21.7 0.00 0.00 0.00 27 998.3
20260905011054 81 134 16.5 24.3 0.00 0.00 0.00 27 998.3
20260905010553 81 179 14.8 26.1 0.00 0.00 0.00 27 998.3
20260905010054 82 180 19.1 26.1 0.00 0.00 0.00 27 998.3
20260905005552 82 181 12.2 23.5 0.00 0.00 0.00 26 998.2
20260905005052 82 193 15.6 23.5 0.00 0.00 0.00 26 998.2
20260905004552 83 167 13.9 24.3 0.00 0.00 0.00 26 998.3
20260905004049 83 176 15.6 24.3 0.00 0.00 0.00 26 998.3
20260905003548 83 172 17.4 25.2 0.00 0.00 0.00 27 998.2
20260905003049 83 181 16.5 33.0 0.00 0.00 0.00 27 998.2
20260905002549 83 171 21.7 33.0 0.00 0.00 0.00 26 998.3
20260905002046 84 173 16.5 26.9 0.00 0.00 0.00 26 998.3
20260905001554 84 180 19.1 26.9 0.00 0.00 0.00 25 998.4
20260905001045 84 159 13.0 22.6 0.00 0.00 0.00 26 998.3
20260905000545 84 163 15.6 20.9 0.00 0.00 0.00 26 998.3
20260905000048 84 172 15.6 26.1 0.00 0.00 0.00 26 998.3
20260904235548 84 155 16.5 30.4 0.00 0.00 0.00 26 998.4
20260904235043 84 196 20.9 30.4 0.00 0.00 0.00 26 998.4
20260904234543 84 153 16.5 26.9 0.00 0.00 0.00 26 998.4
20260904234042 84 174 17.4 26.1 0.00 0.00 0.00 26 998.5
20260904233542 84 175 13.9 25.2 0.00 0.00 0.00 26 998.5
20260904233044 84 189 17.4 24.3 0.00 0.00 0.00 25 998.5
20260904232541 84 170 15.6 26.9 0.00 0.00 0.00 25 998.5
20260904232041 85 153 20.0 26.9 0.00 0.00 0.00 25 998.6
20260904231551 85 174 18.2 24.3 0.00 0.00 0.00 24 998.5
20260904231039 84 181 16.5 27.8 0.00 0.00 0.00 25 998.6
20260904230539 85 140 18.2 26.9 0.00 0.00 0.00 24 998.5
20260904230039 85 146 18.2 26.9 0.00 0.00 0.00 25 998.7
20260904225539 85 159 17.4 26.1 0.00 0.00 0.00 24 998.6
20260904225036 85 145 15.6 26.1 0.00 0.00 0.00 25 998.6
20260904224546 85 177 16.5 26.9 0.00 0.00 0.00 25 998.8
20260904224037 84 151 16.5 21.7 0.00 0.00 0.00 24 998.8
20260904223534 84 158 12.2 23.5 0.00 0.00 0.00 26 998.8
20260904223036 84 145 18.2 30.4 0.00 0.00 0.00 26 998.8
20260904222536 84 138 20.0 26.1 0.00 0.00 0.00 25 998.9
20260904222032 84 151 20.0 28.7 0.00 0.00 0.00 25 999.0
20260904221532 84 179 17.4 27.8 0.00 0.00 0.00 24 999.1
20260904221032 84 145 17.4 26.9 0.00 0.00 0.00 26 999.0
20260904220532 84 145 17.4 23.5 0.00 0.00 0.00 25 999.1
20260904220030 84 169 17.4 26.9 0.00 0.00 0.00 25 999.1
20260904215530 83 143 17.4 26.9 0.00 0.00 0.00 26 999.1
20260904215029 84 138 15.6 30.4 0.00 0.00 0.00 26 999.3
20260904214528 83 168 15.6 30.4 0.00 0.00 0.00 25 999.3
20260904214026 83 144 13.9 28.7 0.00 0.00 0.00 26 999.3
20260904213529 82 157 20.9 28.7 0.00 0.00 0.00 25 999.4
20260904213028 83 140 18.2 27.8 0.00 0.00 0.00 25 999.4
20260904212527 83 136 16.5 26.9 0.00 0.00 0.00 25 999.5
20260904212024 84 150 19.1 26.9 0.00 0.00 0.00 25 999.7
20260904211523 84 166 13.9 20.9 0.00 0.00 0.00 24 999.6
20260904211026 83 165 16.5 25.2 0.00 0.00 0.00 25 999.8
20260904210521 83 135 15.6 25.2 0.00 0.00 0.00 25 999.7
20260904210021 83 177 16.5 23.5 0.00 0.00 0.00 25 999.9
20260904205521 83 161 16.5 21.7 0.00 0.00 0.00 25 999.8
20260904205020 82 163 14.8 30.4 0.00 0.00 0.00 25 999.9
20260904204518 82 147 19.1 30.4 0.00 0.00 0.00 25 999.9
20260904204018 82 174 18.2 26.1 0.00 0.00 0.00 24 1000.1
20260904203518 83 154 13.9 24.3 0.00 0.00 0.00 25 1000.1
20260904203016 82 171 14.8 22.6 0.00 0.00 0.00 25 1000.1
20260904202517 81 174 16.5 24.3 0.00 0.00 0.00 27 1000.0
20260904202014 80 124 13.0 26.1 0.00 0.00 0.00 27 1000.2
20260904201514 80 136 17.4 27.8 0.00 0.00 0.00 27 1000.2
20260904201013 80 147 17.4 29.5 0.00 0.00 0.00 27 1000.4
20260904200517 80 163 15.6 27.8 0.00 0.00 0.00 28 1000.4
20260904200013 80 163 15.6 27.8 0.00 0.00 0.00 26 1000.6
20260904195513 80 170 17.4 33.0 0.00 0.00 0.00 26 1000.5
20260904195012 79 188 19.1 33.0 0.00 0.00 0.00 26 1000.5
20260904194512 80 141 15.6 26.9 0.00 0.00 0.00 26 1000.5
20260904194012 80 163 20.0 30.4 0.00 0.00 0.00 25 1000.6
20260904193512 81 142 20.9 30.4 0.00 0.00 0.00 25 1000.6
20260904193011 82 141 17.4 25.2 0.00 0.00 0.00 24 1000.6
20260904192510 81 179 18.2 25.2 0.00 0.00 0.00 25 1000.7
20260904192010 79 165 20.0 28.7 0.00 0.00 0.00 26 1000.8
20260904191511 80 132 18.2 28.7 0.00 0.00 0.00 26 1000.7
20260904191009 79 151 16.5 26.9 0.00 0.00 0.00 28 1000.8
20260904190509 79 132 19.1 26.9 0.00 0.00 0.00 28 1000.9
20260904190010 79 150 13.9 26.9 0.00 0.00 0.00 27 1001.1
20260904185507 78 139 19.1 29.5 0.00 0.00 0.00 28 1001.2
20260904185007 78 149 15.6 29.5 0.00 0.00 0.00 29 1001.3
20260904184507 78 122 15.6 26.9 0.00 0.00 0.00 28 1001.2
20260904184007 78 164 18.2 26.9 0.00 0.00 0.00 27 1001.2
20260904183506 78 150 22.6 28.7 0.00 0.00 0.00 26 1001.3
20260904183012 79 159 17.4 25.2 0.00 0.00 0.00 27 1001.3
20260904182505 79 184 18.2 25.2 0.00 0.00 0.00 26 1001.4
20260904182005 78 134 20.9 26.9 0.00 0.00 0.00 28 1001.3
20260904181508 79 181 20.9 26.1 0.00 0.00 0.00 26 1001.4
20260904181008 79 151 15.6 26.1 0.00 0.00 0.00 27 1001.3
20260904180503 78 182 20.9 28.7 0.00 0.00 0.00 26 1001.5
20260904180004 78 165 20.0 30.4 0.00 0.00 0.00 27 1001.6
20260904175505 78 145 22.6 30.4 0.00 0.00 0.00 28 1001.5
20260904175002 78 161 19.1 30.4 0.00 0.00 0.00 27 1001.6
20260904174501 77 173 19.1 26.9 0.00 0.00 0.00 27 1001.6
20260904174001 77 182 22.6 27.8 0.00 0.00 0.00 27 1001.6
20260904173503 77 145 18.2 26.9 0.00 0.00 0.00 29 1001.6
20260904173003 77 168 19.1 28.7 0.00 0.00 0.00 29 1001.6
20260904172503 77 164 19.1 30.4 0.00 0.00 0.00 29 1001.5
20260904172001 77 169 17.4 30.4 0.00 0.00 0.00 30 1001.6
20260904171602 77 147 21.7 31.3 0.00 0.00 0.00 28 1001.6
20260904171500 77 163 19.1 31.3 0.00 0.00 0.00 29 1001.6
20260904171100 76 145 20.9 31.3 0.00 0.00 0.00 29 1001.6
20260904170600 77 183 20.0 26.9 0.00 0.00 0.00 27 1001.6
20260904170100 76 165 21.7 33.9 0.00 0.00 0.00 29 1001.5
20260904165600 76 158 22.6 33.9 0.00 0.00 0.00 28 1001.6
20260904165100 77 138 20.9 31.3 0.00 0.00 0.00 28 1001.6
20260904164558 77 182 18.2 25.2 0.00 0.00 0.00 27 1001.7
20260904164057 77 180 17.4 26.9 0.00 0.00 0.00 26 1001.7
20260904163557 76 171 17.4 26.9 0.00 0.00 0.00 27 1001.6
20260904163100 76 132 18.2 27.8 0.00 0.00 0.00 26 1001.8
20260904162558 76 182 20.0 26.9 0.00 0.00 0.00 24 1001.8
20260904162057 76 159 15.6 24.3 0.00 0.00 0.00 24 1001.8
20260904161609 76 165 19.1 24.3 0.00 0.00 0.00 24 1001.8
20260904161056 76 165 16.5 24.3 0.00 0.00 0.00 24 1001.8
20260904160556 76 171 12.2 25.2 0.00 0.00 0.00 25 1001.7
20260904160100 75 168 18.2 25.2 0.00 0.00 0.00 24 1001.8
20260904155555 75 155 15.6 25.2 0.00 0.00 0.00 25 1001.8
20260904155054 75 168 15.6 23.5 0.00 0.00 0.00 28 1001.7
20260904154553 75 181 16.5 23.5 0.00 0.00 0.00 24 1001.8
20260904154052 75 145 14.8 20.9 0.00 0.00 0.00 27 1001.7
20260904153551 74 156 13.9 20.0 0.00 0.00 0.00 28 1001.7
20260904153049 73 161 11.3 22.6 0.00 0.00 0.00 28 1001.8
20260904152549 73 136 13.9 26.1 0.00 0.00 0.00 28 1001.8
20260904152049 73 165 15.6 25.2 0.00 0.00 0.00 27 1001.9
20260904151550 73 156 13.9 22.6 0.00 0.00 0.00 26 1001.8
20260904151046 73 174 15.6 26.9 0.00 0.00 0.00 27 1001.9
20260904150546 72 163 20.0 26.9 0.00 0.00 0.00 27 1001.8
20260904150046 71 138 14.8 21.7 0.00 0.00 0.00 31 1001.9
20260904145546 70 143 13.0 20.9 0.00 0.00 0.00 30 1001.9
20260904145046 70 121 14.8 20.9 0.00 0.00 0.00 34 1002.0
20260904144602 69 150 12.2 16.5 0.00 0.00 0.00 34 1001.9
20260904144044 69 145 10.4 20.9 0.00 0.00 0.00 34 1001.8
20260904143544 68 134 12.2 20.9 0.00 0.00 0.00 34 1001.9
20260904143055 68 143 13.0 20.9 0.00 0.00 0.00 34 1001.8
20260904142544 67 135 14.8 20.9 0.00 0.00 0.00 33 1001.9
20260904142042 67 116 11.3 15.6 0.00 0.00 0.00 34 1002.0
20260904141542 67 122 10.4 17.4 0.00 0.00 0.00 34 1001.9
20260904141044 67 134 9.6 18.2 0.00 0.00 0.00 34 1001.9
20260904140543 67 130 13.0 16.5 0.00 0.00 0.00 33 1001.9
20260904140041 67 153 11.3 17.4 0.00 0.00 0.00 32 1001.9
20260904135541 67 143 10.4 16.5 0.00 0.00 0.00 30 1001.8
20260904135041 66 136 10.4 16.5 0.00 0.00 0.00 32 1001.7
20260904134539 65 145 12.2 17.4 0.00 0.00 0.00 32 1001.7
20260904134038 64 131 11.3 16.5 0.00 0.00 0.00 33 1001.7
20260904133541 64 124 13.0 16.5 0.00 0.00 0.00 32 1001.5
20260904133038 63 136 10.4 14.8 0.00 0.00 0.00 31 1001.5
20260904132537 63 151 8.7 17.4 0.00 0.00 0.00 32 1001.5
20260904132038 63 124 12.2 17.4 0.00 0.00 0.00 32 1001.5
20260904131535 63 139 11.3 17.4 0.00 0.00 0.00 33 1001.5
20260904131034 63 126 8.7 12.2 0.00 0.00 0.00 33 1001.4
20260904130533 63 163 7.8 13.9 0.00 0.00 0.00 31 1001.4
20260904130032 63 153 8.7 13.0 0.00 0.00 0.00 31 1001.4
20260904125531 64 143 9.6 13.0 0.00 0.00 0.00 31 1001.3
20260904125030 65 131 9.6 15.6 0.00 0.00 0.00 30 1001.3
20260904124529 65 170 11.3 17.4 0.00 0.00 0.00 30 1001.3
20260904124027 65 130 11.3 17.4 0.00 0.00 0.00 30 1001.2
20260904123528 66 134 10.4 19.1 0.00 0.00 0.00 29 1001.1
20260904123028 67 133 11.3 19.1 0.00 0.00 0.00 29 1001.1
20260904122530 67 110 12.2 19.1 0.00 0.00 0.00 28 1001.1
20260904122026 68 131 13.0 19.1 0.00 0.00 0.00 28 1001.0
20260904121526 67 134 11.3 17.4 0.00 0.00 0.00 29 1001.0
20260904121027 66 148 11.3 20.9 0.00 0.00 0.00 30 1000.9
20260904120524 65 208 11.3 15.6 0.00 0.00 0.00 29 1001.0
20260904120024 65 154 10.4 15.6 0.00 0.00 0.00 29 1001.1
20260904115523 65 151 9.6 15.6 0.00 0.00 0.00 29 1001.2
20260904115023 64 161 10.4 13.9 0.00 0.00 0.00 29 1001.2
20260904114521 65 147 8.7 14.8 0.00 0.00 0.00 29 1001.2
20260904114021 65 161 10.4 14.8 0.00 0.00 0.00 29 1001.2
20260904113521 65 145 9.6 14.8 0.00 0.00 0.00 29 1001.2
20260904113020 65 149 8.7 14.8 0.00 0.00 0.00 28 1001.1
20260904112517 66 160 8.7 13.9 0.00 0.00 0.00 27 1001.2
20260904112017 67 142 11.3 20.0 0.00 0.00 0.00 27 1001.2
20260904111516 67 155 10.4 20.0 0.00 0.00 0.00 26 1001.1
20260904111016 67 145 11.3 16.5 0.00 0.00 0.00 27 1001.1
20260904110515 67 161 11.3 18.2 0.00 0.00 0.00 27 1001.2
20260904110015 68 166 12.2 18.2 0.00 0.00 0.00 26 1001.3
20260904105515 69 142 10.4 25.2 0.00 0.00 0.00 26 1001.1
20260904105014 69 148 13.0 21.7 0.00 0.00 0.00 26 1001.2
20260904104514 69 147 13.0 18.2 0.00 0.00 0.00 27 1001.1
20260904104013 69 152 11.3 19.1 0.00 0.00 0.00 27 1001.1
20260904103513 68 142 14.8 23.5 0.00 0.00 0.00 25 1001.1
20260904103013 69 165 13.0 23.5 0.00 0.00 0.00 26 1001.1
20260904102512 69 129 15.6 21.7 0.00 0.00 0.00 26 1001.2
20260904102013 70 142 12.2 18.2 0.00 0.00 0.00 25 1001.2
20260904101512 69 136 10.4 20.0 0.00 0.00 0.00 26 1001.1
20260904101012 69 128 12.2 21.7 0.00 0.00 0.00 25 1001.1
20260904100512 70 170 8.7 21.7 0.00 0.00 0.00 24 1001.1
20260904100012 70 174 11.3 18.2 0.00 0.00 0.00 24 1001.1
20260904095512 69 151 12.2 16.5 0.00 0.00 0.00 26 1001.1
20260904095013 69 147 11.3 16.5 0.00 0.00 0.00 25 1001.1
20260904094514 69 165 12.2 16.5 0.00 0.00 0.00 25 1001.1
20260904094010 69 156 10.4 17.4 0.00 0.00 0.00 25 1001.2
20260904093510 69 138 11.3 18.2 0.00 0.00 0.00 25 1001.2
20260904093009 69 142 10.4 17.4 0.00 0.00 0.00 26 1001.1
20260904092509 68 130 11.3 16.5 0.00 0.00 0.00 26 1001.2
20260904092008 68 168 10.4 14.8 0.00 0.00 0.00 26 1001.2
20260904091523 69 138 9.6 14.8 0.00 0.00 0.00 26 1001.1
20260904091007 69 158 11.3 17.4 0.00 0.00 0.00 24 1001.1
20260904090509 69 154 13.9 18.2 0.00 0.00 0.00 25 1001.1
20260904090013 69 135 13.0 17.4 0.00 0.00 0.00 25 1001.1
20260904085507 70 124 12.2 21.7 0.00 0.00 0.00 25 1001.2
20260904085011 70 132 15.6 21.7 0.00 0.00 0.00 24 1001.1
20260904084610 70 132 13.0 20.9 0.00 0.00 0.00 24 1001.1
20260904084008 71 130 14.8 20.9 0.00 0.00 0.00 23 1001.1
20260904083504 71 128 13.0 22.6 0.00 0.00 0.00 23 1001.0
20260904083009 72 138 13.9 23.5 0.00 0.00 0.00 23 1001.0
20260904082503 72 119 11.3 23.5 0.00 0.00 0.00 22 1000.8
20260904082005 72 122 15.6 25.2 0.00 0.00 0.00 22 1000.9
20260904081505 71 113 19.1 25.2 0.00 0.00 0.00 22 1000.8
20260904081002 70 116 12.2 19.1 0.00 0.00 0.00 24 1000.9
20260904080514 71 140 13.0 20.9 0.00 0.00 0.00 23 1001.0
20260904080003 71 143 12.2 21.7 0.00 0.00 0.00 23 1000.9
20260904075501 71 153 14.8 22.6 0.00 0.00 0.00 23 1000.9
20260904075102 71 146 13.9 22.6 0.00 0.00 0.00 23 1001.0
20260904074609 71 120 13.9 22.6 0.00 0.00 0.00 24 1000.8
20260904074059 70 160 16.5 20.9 0.00 0.00 0.00 23 1000.8
20260904073557 70 134 13.9 21.7 0.00 0.00 0.00 24 1000.8
20260904073057 69 146 12.2 19.1 0.00 0.00 0.00 25 1000.8
20260904072556 69 127 13.0 19.1 0.00 0.00 0.00 25 1000.9
20260904072055 69 143 13.0 18.2 0.00 0.00 0.00 25 1000.8
20260904071623 68 127 12.2 16.5 0.00 0.00 0.00 27 1000.7
20260904071054 69 153 9.6 21.7 0.00 0.00 0.00 26 1000.6
20260904070554 70 151 14.8 21.7 0.00 0.00 0.00 25 1000.5
20260904070106 70 143 13.9 19.1 0.00 0.00 0.00 25 1000.5
20260904065551 71 137 11.3 22.6 0.00 0.00 0.00 24 1000.5
20260904065051 71 138 14.8 22.6 0.00 0.00 0.00 24 1000.5
20260904064604 72 138 13.9 19.1 0.00 0.00 0.00 24 1000.5
20260904064052 71 136 13.0 17.4 0.00 0.00 0.00 23 1000.6
20260904063550 72 164 8.7 20.0 0.00 0.00 0.00 22 1000.6
20260904063054 72 138 13.0 20.0 0.00 0.00 0.00 22 1000.6
20260904062551 72 136 12.2 19.1 0.00 0.00 0.00 23 1000.6
20260904062047 72 153 12.2 19.1 0.00 0.00 0.00 23 1000.5
20260904061547 72 165 12.2 18.2 0.00 0.00 0.00 23 1000.5
20260904061047 72 134 13.0 18.2 0.00 0.00 0.00 23 1000.6
20260904060545 71 144 11.3 17.4 0.00 0.00 0.00 24 1000.5
20260904060044 70 153 12.2 16.5 0.00 0.00 0.00 27 1000.5
20260904055544 69 145 10.4 17.4 0.00 0.00 0.00 26 1000.6
20260904055040 71 143 10.4 24.3 0.00 0.00 0.00 26 1000.5
20260904054539 72 143 14.8 24.3 0.00 0.00 0.00 24 1000.6
20260904054038 72 126 12.2 22.6 0.00 0.00 0.00 26 1000.5
20260904053536 72 129 16.5 22.6 0.00 0.00 0.00 25 1000.6
20260904053042 72 128 13.0 19.1 0.00 0.00 0.00 26 1000.5
20260904052537 72 134 13.0 24.3 0.00 0.00 0.00 26 1000.5
20260904052036 73 150 15.6 24.3 0.00 0.00 0.00 26 1000.4
20260904051535 72 145 12.2 17.4 0.00 0.00 0.00 26 1000.4
20260904051034 73 170 10.4 22.6 0.00 0.00 0.00 24 1000.5
20260904050532 73 136 14.8 22.6 0.00 0.00 0.00 25 1000.5
20260904050033 74 160 14.8 28.7 0.00 0.00 0.00 24 1000.5
20260904045529 74 127 14.8 21.7 0.00 0.00 0.00 24 1000.5
20260904045028 74 136 13.9 24.3 0.00 0.00 0.00 25 1000.5
20260904044526 74 145 13.9 25.2 0.00 0.00 0.00 25 1000.5
20260904044024 74 124 16.5 25.2 0.00 0.00 0.00 26 1000.6
20260904043523 74 97 14.8 20.9 0.00 0.00 0.00 27 1000.5
20260904043021 74 144 13.0 25.2 0.00 0.00 0.00 25 1000.6
20260904042521 74 138 13.9 20.0 0.00 0.00 0.00 25 1000.6
20260904042020 74 134 12.2 20.0 0.00 0.00 0.00 26 1000.5
20260904041524 74 113 14.8 19.1 0.00 0.00 0.00 25 1000.5
20260904041015 74 149 13.0 21.7 0.00 0.00 0.00 25 1000.4
20260904040518 75 134 13.9 26.1 0.00 0.00 0.00 25 1000.4
20260904040013 75 127 15.6 24.3 0.00 0.00 0.00 25 1000.4
20260904035512 76 159 12.2 24.3 0.00 0.00 0.00 24 1000.3
20260904035010 75 115 17.4 24.3 0.00 0.00 0.00 25 1000.1
20260904034508 74 95 13.9 20.0 0.00 0.00 0.00 25 1000.2
20260904034007 74 150 10.4 18.2 0.00 0.00 0.00 25 1000.3
20260904033506 75 145 12.2 17.4 0.00 0.00 0.00 24 1000.2
20260904033004 75 127 13.0 18.2 0.00 0.00 0.00 24 1000.2
20260904032502 75 137 12.2 18.2 0.00 0.00 0.00 24 1000.3
20260904032001 75 152 13.0 20.9 0.00 0.00 0.00 23 1000.3
20260904031611 75 143 12.2 20.9 0.00 0.00 0.00 23 1000.2
20260904031058 76 141 13.0 22.6 0.00 0.00 0.00 24 1000.1
20260904030557 76 138 13.0 22.6 0.00 0.00 0.00 24 1000.1
20260904030055 76 136 14.8 25.2 0.00 0.00 0.00 23 1000.1
20260904025554 76 126 17.4 25.2 0.00 0.00 0.00 23 1000.1
20260904025053 75 137 14.8 19.1 0.00 0.00 0.00 24 1000.0